Location: Godiavel Galaoual
(15.2485°N, 12.6604°W)
Time: 13:01:49
(UTC+00:00)

ATLAS 2AS CENTAUR R/B - Pass Details

Date: 27 February 2020
Orbit: 929 x 1283 km, 63.7° (Epoch: 03 April)

Event Time Altitude Azimuth Distance (km) Brightness Sun altitude
Rises 19:36:37 0° 181° (S) 4,007 5.8 -10.1°
Reaches altitude 10° 19:39:32 10° 172° (S) 3,097 5.1 -10.8°
Maximum altitude 19:46:12 35° 109° (ESE) 1,883 3.5 -12.4°
Drops below altitude 10° 19:53:10 10° 47° (NE) 3,260 4.8 -14.1°
Enters shadow 19:53:43 - 46° (NE) 3,425 4.9 -14.2°
